Regional Weather Roundup
Issued by NWS New Orleans/Baton Rouge, LA

Home | Current Version | Previous Version | Text Only | Print | Product List | Glossary On
Versions: 1 2 3 4 5 6 7 8 9 10 11 12 13 14 15 16 17 18 19 20 21 22 23 24 25 26 27 28 29 30 31 32 33 34 35 36 37 38 39 40 41 42 43 44 45 46 47 48 49 50
436
ASUS44 KLIX 270005
RWRLIX
NEW ORLEANS REGIONAL WEATHER ROUNDUP
NATIONAL WEATHER SERVICE NEW ORLEANS LA
600 PM CST THU FEB 26 2015

NOTE: "FAIR" INDICATES FEW OR NO CLOUDS BELOW 12,000 FEET WITH NO
      SIGNIFICANT WEATHER AND/OR OBSTRUCTIONS TO VISIBILITY.
      SKY/WX - SKY CONDITION AND SIGNIFICANT WEATHER.
      TMP - AIR TEMPERATURE.     DP    - DEWPOINT TEMPERATURE.
      RH  - RELATIVE HUMIDITY.   PRES  - PRESSURE.
      HI  - HEAT INDEX.          WCI   - WIND CHILL INDEX.

*  THESE STATIONS ARE NOT NWS OR FAA STATIONS AND ARE NOT UNDER
   NWS QUALITY CONTROL.

LAZ038-040-048-061>063-065>067-069-270100-
SOUTHEAST LOUISIANA

CITY           SKY/WX    TMP DP  RH WIND       PRES   REMARKS
N.O. AUDUBON     N/A     48  37  63 MISG        N/A
6HR MIN TEMP:  44; 6HR MAX TEMP:  49;

N.O. INTL ARPT CLOUDY    48  32  53 N10       30.14R
6HR MIN TEMP:  42; 6HR MAX TEMP:  48;

N.O. LAKEFRONT CLOUDY    50  33  52 N17       30.15R
6HR MIN TEMP:  44; 6HR MAX TEMP:  50;

SLIDELL        MOCLDY    46  33  60 N5        30.13R
6HR MIN TEMP:  42; 6HR MAX TEMP:  50;

BATON ROUGE    PTCLDY    48  33  56 N7        30.16R
6HR MIN TEMP:  44; 6HR MAX TEMP:  53;

BOOTHVILLE     MOCLDY    47  38  71 N6        30.13R
6HR MIN TEMP:  42; 6HR MAX TEMP:  47;

BELLE CHASSE   MOCLDY    48  32  53 N8        30.13R
6HR MIN TEMP:  44; 6HR MAX TEMP:  49;

BOGALUSA*        N/A     47  33  58 N6        30.15R
6HR MIN TEMP:  42; 6HR MAX TEMP:  51;

GALLIANO*      PTCLDY    47  37  66 N7        30.14R
6HR MIN TEMP:  46; 6HR MAX TEMP:  50;

NEW ROADS*       N/A     44  33  66 N15       30.19R
6HR MIN TEMP:  42; 6HR MAX TEMP:  50;

GONZALES*        N/A     49  32  51 N5        30.14R
6HR MIN TEMP:  43; 6HR MAX TEMP:  50;

HAMMOND*       PTCLDY    48  30  49 N3        30.16R
HOUMA*         NOT AVBL
PORT FOURCHON* CLEAR     46  37  71 N15       30.16R

$$

MSZ070-080>082-270100-
SOUTHERN MISSISSIPPI

CITY           SKY/WX    TMP DP  RH WIND       PRES   REMARKS
MCCOMB         CLEAR     44  32  62 N13       30.17R
6HR MIN TEMP:  40; 6HR MAX TEMP:  51;

GULFPORT       MOCLDY    46  34  62 N9        30.12R
6HR MIN TEMP:  44; 6HR MAX TEMP:  49;

BILOXI         MOCLDY    47  35  62 N12       30.12R
6HR MIN TEMP:  45; 6HR MAX TEMP:  49;

PASCAGOULA     MOCLDY    46  36  68 N3        30.12R
6HR MIN TEMP:  46; 6HR MAX TEMP:  50;


$$

COASTAL OBSERVATIONS
LAKE AND NEARSHORE STATIONS

STATION/POSITION TIME  TEMP    WIND        PRES    WAVE
                       AIR SEA DIR/SP/G            HT/PER
                 (UTC) (F)     (DEG/KT/KT) (MB)    (FT/S)
PASCAGOULA       0000   47     350/  5/  7 1019.2
WAVELAND YACHT   0000   47 51  360/ 12/ 14 1019.9
GRAND ISLE       0000   47 53   20/ 12/ 14 1020.4
SOUTHWEST PASS   0000   50 49   30/ 17/ 20 1020.0
NEW CANAL        0000   49      10/ 15/ 19 1020.6
SHELL BEACH      0000   48 51  340/ 16/ 18 1020.1

OFFSHORE STATIONS

STATION/POSITION TIME  TEMP    WIND        PRES    WAVE
                       AIR SEA DIR/SP/G            HT/PER
                 (UTC) (F)     (DEG/KT/KT) (MB)    (FT/S)

$$




USA.gov is the U.S. government's official web portal to all federal, state and local government web resources and services.